Edinburgh Airport, United Kingdom

11:18 AM BST on May 21, 2018 (GMT +0100)
Edinburgh Airport

Weather History for EGPH - April, 2014

Change the Weather History Date:

Sunday, April 6, 2014

  Actual Average Record
Temperature  
Mean Temperature 52 °F -  
Max Temperature 60 °F 53 °F 64 °F (2011)
Min Temperature 44 °F 39 °F 23 °F (2008)
Degree Days  
Heating Degree Days 13    
Growing Degree Days 2 (Base 50)    
Moisture  
Dew Point 47 °F    
Average Humidity 77    
Maximum Humidity 88    
Minimum Humidity 55    
Precipitation  
Precipitation 0.00 in 0.06 in - ()
Sea Level Pressure  
Sea Level Pressure 29.54 in    
Wind  
Wind Speed 13 mph ()    
Max Wind Speed 25 mph    
Max Gust Speed 39 mph    
Visibility 6.2 miles    
Events Rain    
Averages and records for this station are not official NWS values.
T = Trace of Precipitation, MM = Missing Value Source: Averaged Metar Reports

Daily Weather History Graph

Daily Weather History Graph

Search for Another Location

Airport or City:

Astronomy

Apr. 06, 2014 Rise Set
Actual Time 6:31 AM BST 8:01 PM BST
Civil Twilight 5:52 AM BST 8:40 PM BST
Nautical Twilight 5:05 AM BST 9:28 PM BST
Astronomical Twilight 4:11 AM BST 10:22 PM BST
Moon 10:43 AM BST (4/6) 2:23 AM BST (4/6)
Length of Visible Light 14h 47m
Length of Day
13h 30m
Waxing Crescent, 41% of the Moon is Illuminated
Apr 6
Waxing Crescent
Apr 7
First Quarter
Apr 15
Full
Apr 22
Last Quarter
Apr 29
New

Hourly Weather History & Observations

Time (BST) Temp. Windchill Dew Point Humidity Pressure Visibility Wind Dir Wind Speed Gust Speed Precip Events Conditions
12:20 AM 53.6 °F - 50.0 °F 88% 29.62 in 6.2 mi SW 11.5 mph - N/A   Mostly Cloudy
12:50 AM 53.6 °F - 50.0 °F 88% 29.62 in 6.2 mi SW 9.2 mph - N/A Rain Light Rain
1:20 AM 53.6 °F - 50.0 °F 88% 29.59 in 6.2 mi SW 6.9 mph - N/A   Scattered Clouds
1:50 AM 53.6 °F - 50.0 °F 88% 29.59 in 6.2 mi SSW 6.9 mph 21.9 mph N/A   Partly Cloudy
2:20 AM 53.6 °F - 50.0 °F 88% 29.59 in 6.2 mi SSW 11.5 mph - N/A   Scattered Clouds
2:50 AM 53.6 °F - 50.0 °F 88% 29.56 in 6.2 mi SW 10.4 mph - N/A   Scattered Clouds
3:20 AM 53.6 °F - 50.0 °F 88% 29.56 in 6.2 mi SW 11.5 mph - N/A   Partly Cloudy
3:50 AM 53.6 °F - 50.0 °F 88% 29.56 in 6.2 mi SW 12.7 mph - N/A   Mostly Cloudy
4:20 AM 53.6 °F - 50.0 °F 88% 29.56 in 6.2 mi SW 13.8 mph - N/A   Partly Cloudy
4:50 AM 55.4 °F - 50.0 °F 82% 29.53 in 6.2 mi SW 8.1 mph - N/A   Mostly Cloudy
5:20 AM 53.6 °F - 48.2 °F 82% 29.53 in 6.2 mi SW 10.4 mph - N/A   Mostly Cloudy
5:50 AM 51.8 °F - 48.2 °F 88% 29.53 in 6.2 mi SW 12.7 mph - N/A   Scattered Clouds
6:20 AM 51.8 °F - 48.2 °F 88% 29.53 in 6.2 mi SW 11.5 mph - N/A   Mostly Cloudy
6:50 AM 51.8 °F - 48.2 °F 88% 29.53 in 6.2 mi SW 15.0 mph - N/A   Mostly Cloudy
7:20 AM 53.6 °F - 48.2 °F 82% 29.53 in 6.2 mi SW 10.4 mph - N/A   Mostly Cloudy
7:50 AM 53.6 °F - 48.2 °F 82% 29.53 in 6.2 mi SSW 9.2 mph - N/A   Mostly Cloudy
8:20 AM 55.4 °F - 50.0 °F 82% 29.53 in 6.2 mi SSW 9.2 mph - N/A   Mostly Cloudy
8:50 AM 53.6 °F - 50.0 °F 88% 29.53 in 6.2 mi SSW 9.2 mph - N/A   Mostly Cloudy
9:20 AM 55.4 °F - 50.0 °F 82% 29.53 in 6.2 mi South 15.0 mph - N/A   Scattered Clouds
9:50 AM 55.4 °F - 50.0 °F 82% 29.50 in 6.2 mi SSW 13.8 mph - N/A   Scattered Clouds
10:20 AM 55.4 °F - 50.0 °F 82% 29.50 in 6.2 mi South 17.3 mph - N/A   Scattered Clouds
10:50 AM 59.0 °F - 51.8 °F 77% 29.47 in 6.2 mi South 19.6 mph 31.1 mph N/A   Scattered Clouds
11:20 AM 59.0 °F - 51.8 °F 77% 29.47 in 6.2 mi SSW 19.6 mph - N/A   Mostly Cloudy
11:50 AM 60.8 °F - 51.8 °F 72% 29.47 in 6.2 mi SSW 25.3 mph - N/A   Partly Cloudy
12:20 PM 59.0 °F - 51.8 °F 77% 29.47 in 6.2 mi SSW 24.2 mph - N/A   Mostly Cloudy
12:50 PM 59.0 °F - 51.8 °F 77% 29.47 in 6.2 mi South 16.1 mph - N/A   Mostly Cloudy
1:20 PM 59.0 °F - 51.8 °F 77% 29.47 in 6.2 mi SSW 23.0 mph - N/A   Mostly Cloudy
1:50 PM 60.8 °F - 51.8 °F 72% 29.47 in 6.2 mi SSW 21.9 mph 33.4 mph N/A   Mostly Cloudy
2:20 PM 59.0 °F - 50.0 °F 72% 29.47 in 6.2 mi SSW 25.3 mph 39.1 mph N/A   Mostly Cloudy
2:50 PM 59.0 °F - 51.8 °F 77% 29.47 in 6.2 mi SW 19.6 mph - N/A   Mostly Cloudy
3:20 PM 59.0 °F - 51.8 °F 77% 29.47 in 6.2 mi SW 25.3 mph 36.8 mph N/A Rain Light Rain
3:50 PM 57.2 °F - 51.8 °F 82% 29.47 in 6.2 mi SW 24.2 mph - N/A   Mostly Cloudy
4:20 PM 57.2 °F - 50.0 °F 77% 29.50 in 5.6 mi SW 21.9 mph - N/A Rain Light Rain
4:50 PM 57.2 °F - 51.8 °F 82% 29.50 in 6.2 mi WSW 16.1 mph - N/A   Mostly Cloudy
5:20 PM 57.2 °F - 46.4 °F 67% 29.50 in 6.2 mi WSW 18.4 mph - N/A   Scattered Clouds
5:50 PM 57.2 °F - 44.6 °F 63% 29.50 in 6.2 mi WSW 23.0 mph - N/A   Partly Cloudy
6:20 PM 57.2 °F - 41.0 °F 55% 29.53 in 6.2 mi WSW 25.3 mph - N/A   Partly Cloudy
6:50 PM 55.4 °F - 41.0 °F 58% 29.53 in 6.2 mi WSW 21.9 mph - N/A   Partly Cloudy
7:20 PM 55.4 °F - 41.0 °F 58% 29.56 in - WSW 19.6 mph - N/A   Clear
7:50 PM 53.6 °F - 39.2 °F 58% 29.56 in 6.2 mi WSW 17.3 mph - N/A   Partly Cloudy
8:20 PM 51.8 °F - 39.2 °F 62% 29.59 in 6.2 mi WSW 13.8 mph - N/A   Partly Cloudy
8:50 PM 51.8 °F - 39.2 °F 62% 29.59 in - WSW 15.0 mph - N/A   Clear
9:20 PM 50.0 °F - 37.4 °F 62% 29.62 in - WSW 13.8 mph - N/A   Clear
9:50 PM 48.2 °F - 37.4 °F 66% 29.62 in - WSW 11.5 mph - N/A   Clear
10:20 PM 48.2 °F - 39.2 °F 71% 29.62 in - SW 11.5 mph - N/A   Clear
10:50 PM 48.2 °F - 39.2 °F 71% 29.65 in - West 5.8 mph - N/A   Clear
11:20 PM 44.6 °F 40.2 °F 39.2 °F 81% 29.68 in - WSW 8.1 mph - N/A   Clear
11:50 PM 44.6 °F 39.7 °F 39.2 °F 81% 29.68 in - SW 9.2 mph - N/A   Clear